#timestamp,LO_Frequency,Hit,StdDev 
1563372015.4,286046998.9,N
1563372035.2,286046997.3,N
1563372055.1,286046996.9,Y
1563372056.0,286046996.9,P
1563372075.8,286046998.8,N
1563372095.6,286046996.6,P
1563372115.5,286046995.2,Y
1563372135.3,286047000.4,P
1563372155.2,286047002.8,N
1563372175.9,286047001.4,N
1563372195.7,286047003.4,N
1563372215.6,286047004.3,N
1563372235.4,286047004.2,N
1563372255.2,286047004.0,N
1563372275.1,286047005.9,N
1563372276.0,286047005.9,N
1563372295.8,286047006.0,N
1563372315.7,286047002.1,N
1563372335.5,286047003.8,N
1563372355.3,286047005.0,N
1563372375.2,286047005.2,N
1563372395.0,286047004.9,N
1563372395.9,286047004.9,N
1563372415.7,286047004.8,N
1563372435.6,286047006.7,Y
1563372455.4,286047003.5,P
1563372475.3,286047003.1,P
1563372495.1,286047001.3,P
1563372496.0,286047001.3,N
1563372515.8,286047002.5,N
1563372535.7,286047001.1,N
1563372555.5,286046998.7,N
1563372575.3,286046999.8,N
1563372595.2,286047001.5,N
1563372615.0,286047002.0,N
1563372615.9,286047002.0,N
1563372635.8,286047001.6,N
1563372655.6,286047002.6,N
1563372675.4,286047001.6,N
1563372695.3,286047004.4,Y
1563372715.1,286047000.8,P
1563372735.9,286046998.3,P
1563372755.7,286047000.7,N
1563372775.5,286046998.2,N
1563372795.4,286046998.4,N
1563372815.2,286046998.6,N
1563372835.0,286046996.8,N
1563372835.9,286046996.8,N
1563372855.8,286046996.8,N
1563372875.6,286046997.2,N
1563372895.5,286046995.3,N
1563372915.3,286046997.1,N
1563372935.1,286046995.3,N
1563372955.9,286046995.0,N
1563372975.7,286046996.7,N
1563372995.5,286046996.7,N
1563373015.4,286046998.4,N
1563373035.2,286046998.1,N
1563373055.1,286047000.0,N
1563373056.0,286047000.0,N
1563373075.8,286047002.4,N
1563373095.6,286047002.5,N
1563373115.5,286047002.3,N
1563373135.3,286047001.6,N
1563373155.1,286047002.7,N
1563373175.9,286047001.0,N
1563373195.7,286047000.3,N
1563373215.6,286047003.8,N
1563373235.4,286047004.1,N
1563373255.2,286047003.0,N
1563373275.1,286047006.0,N
1563373276.0,286047006.0,N
1563373295.8,286047005.6,N
1563373315.7,286047004.1,N
1563373335.5,286047004.5,N
1563373355.3,286047009.0,N
1563373375.2,286047007.9,N
1563373395.0,286047008.7,N
1563373395.9,286047008.7,N
1563373415.7,286047006.4,N
1563373435.6,286047007.1,N
1563373455.4,286047008.5,N
1563373475.3,286047006.8,N
1563373495.1,286047007.5,N
1563373496.0,286047007.5,N
1563373515.8,286047007.3,N
1563373535.7,286047007.2,N
1563373555.5,286047008.3,N
1563373575.4,286047007.2,N
1563373595.2,286047006.3,N
1563373615.0,286047007.3,N
1563373615.9,286047007.3,N
1563373635.8,286047008.4,Y
1563373655.6,286047001.4,P
1563373675.4,286047002.3,N
1563373695.3,286047004.4,N
1563373715.1,286047004.0,N
1563373735.9,286047003.9,N
1563373755.7,286047001.3,N
1563373775.5,286047004.2,N
1563373795.4,286047001.5,N
1563373815.2,286047002.4,N
1563373835.0,286046996.5,N
1563373835.9,286046996.5,N
1563373855.8,286046996.7,N
1563373875.6,286046998.9,N
1563373895.5,286046998.1,N
1563373915.3,286047002.2,N
1563373935.1,286047002.5,N
1563373955.9,286047000.0,N
1563373975.7,286047000.8,N
1563373995.5,286046998.4,N
1563374015.4,286047000.2,N
1563374035.2,286047002.6,N
1563374055.1,286047005.9,N
1563374056.0,286047005.9,N
1563374075.8,286047006.0,N
1563374095.6,286047004.1,N
1563374115.5,286047006.0,N
1563374135.3,286047005.6,N
1563374155.1,286047003.4,N
1563374175.9,286047005.2,N
1563374195.7,286047006.0,N
1563374215.6,286047005.8,N
1563374235.4,286047003.4,N
1563374255.2,286047003.2,N
1563374275.1,286047005.8,N
1563374276.0,286047005.8,N
1563374295.8,286047011.9,Y
1563374315.6,286047002.6,P
1563374335.5,286047000.6,P
1563374355.3,286046998.7,N
1563374375.2,286046999.1,N
1563374395.9,286046998.7,N
1563374415.7,286046998.9,N
1563374435.6,286046998.8,N
1563374455.4,286046998.6,N
1563374475.2,286047000.9,N
1563374495.1,286046998.5,N
1563374496.0,286046998.5,N
1563374515.8,286046999.6,N
1563374535.7,286046997.8,N
1563374555.5,286046996.8,N
1563374575.3,286046999.6,N
1563374595.2,286046995.1,Y
1563374615.0,286046997.5,P
1563374615.9,286046997.5,N
1563374635.8,286046993.4,P
1563374655.6,286046993.4,Y
1563374675.4,286046999.4,P
1563374695.3,286046999.1,N
1563374715.1,286046998.8,N
1563374735.8,286046999.1,N
1563374755.7,286046999.1,N
1563374775.5,286046996.5,Y
1563374795.4,286047000.0,P
1563374815.2,286046999.7,N
1563374835.0,286047000.2,N
1563374835.9,286047000.2,N
1563374855.8,286047002.3,Y
1563374875.6,286047001.9,P
1563374895.4,286047003.0,N
1563374915.3,286047005.1,P
1563374935.1,286047005.4,N
1563374955.9,286047005.3,N
1563374975.7,286047004.5,N
1563374995.5,286047006.5,Y
1563375015.4,286047004.4,P
1563375035.2,286047001.4,P
1563375055.1,286047004.3,P
1563375056.0,286047004.3,Y
1563375075.8,286047001.0,P
1563375095.6,286046998.8,N
1563375115.5,286047000.0,N
1563375135.3,286047000.6,N
1563375155.1,286047000.8,N
1563375175.9,286046998.2,N
1563375195.7,286047000.9,N
1563375215.6,286046998.9,N
1563375235.4,286046998.9,N
1563375255.2,286047001.2,N
1563375275.1,286046999.2,N
1563375276.0,286046999.2,N
1563375295.8,286046997.4,N
1563375315.6,286046998.6,N
1563375335.5,286046998.4,N
1563375355.3,286046998.3,N
1563375375.2,286046999.5,N
1563375395.9,286046997.3,N
1563375415.7,286046997.6,N
1563375435.6,286046997.9,N
1563375455.4,286046995.7,N
1563375475.2,286046997.6,N
1563375495.1,286046995.7,N
1563375496.0,286046995.7,N
1563375515.8,286046993.8,Y
1563375535.7,286046995.3,P
1563375555.5,286046995.4,N
1563375575.3,286046997.6,N
1563375595.2,286046995.2,Y
